YO4ISC-13 Weather Reports


time (UTC)temp
C
wind
direction
speed
KPH
gust
KPH
rain 1hr
cm
rain 24hr
cm
rain mn
cm
humidity
%
barometer
mb
20260506181002 11 182 3.2 4.8 0.00 0.00 0.00 89 1018.0
20260506180001 11 179 3.2 4.8 0.00 0.00 0.00 89 1018.0
20260506175002 11 180 4.8 9.7 0.00 0.00 0.00 89 1018.0
20260506174001 11 173 1.6 4.8 0.00 0.00 0.00 89 1018.0
20260506173001 11 170 8.0 11.3 0.00 0.00 0.00 89 1018.0
20260506172002 11 168 8.0 9.7 0.00 0.00 0.00 89 1018.0
20260506171001 12 162 8.0 9.7 0.00 0.00 0.00 88 1018.0
20260506170002 12 164 11.3 14.5 0.00 0.00 0.00 87 1018.0
20260506165001 12 164 16.1 17.7 0.00 0.00 0.00 86 1018.0
20260506164002 12 171 12.9 12.9 0.00 0.00 0.00 85 1018.0
20260506163001 12 174 11.3 14.5 0.00 0.00 0.00 84 1018.0
20260506162002 13 172 14.5 17.7 0.00 0.00 0.00 82 1018.0
20260506161001 13 170 9.7 14.5 0.00 0.00 0.00 81 1018.0
20260506160002 13 176 11.3 14.5 0.00 0.00 0.00 82 1018.0
20260506155001 13 178 17.7 22.5 0.00 0.00 0.00 81 1018.0
20260506154002 13 170 11.3 14.5 0.00 0.00 0.00 82 1018.0
20260506153001 13 171 17.7 19.3 0.00 0.00 0.00 81 1018.0
20260506152002 13 169 11.3 19.3 0.00 0.00 0.00 80 1018.0
20260506151001 13 172 19.3 19.3 0.00 0.00 0.00 79 1018.0
20260506150002 13 170 19.3 20.9 0.00 0.00 0.00 78 1018.0
20260506145001 13 167 12.9 16.1 0.00 0.00 0.00 77 1018.0
20260506144001 13 175 12.9 20.9 0.00 0.00 0.00 76 1018.0
20260506143002 13 185 19.3 24.1 0.00 0.00 0.00 76 1018.0
20260506142001 13 175 12.9 17.7 0.00 0.00 0.00 76 1018.0
20260506141002 13 172 19.3 19.3 0.00 0.00 0.00 73 1018.0
20260506140001 14 170 14.5 16.1 0.00 0.00 0.00 75 1018.0
20260506135002 14 175 14.5 19.3 0.00 0.00 0.00 74 1018.0
20260506134001 14 185 17.7 20.9 0.00 0.00 0.00 73 1018.0
20260506133002 14 175 22.5 24.1 0.00 0.00 0.00 71 1018.0
20260506132001 14 172 20.9 27.4 0.00 0.00 0.00 69 1019.0
20260506131002 14 165 17.7 19.3 0.00 0.00 0.00 72 1019.0
20260506130001 14 168 19.3 20.9 0.00 0.00 0.00 71 1019.0
20260506125002 15 170 16.1 19.3 0.00 0.00 0.00 72 1018.0
20260506124001 14 172 12.9 20.9 0.00 0.00 0.00 71 1018.0
20260506123002 15 172 9.7 12.9 0.00 0.00 0.00 70 1018.0
20260506122001 15 167 20.9 20.9 0.00 0.00 0.00 67 1019.0
20260506121002 15 174 22.5 22.5 0.00 0.00 0.00 66 1019.0
20260506120001 15 174 19.3 25.7 0.00 0.00 0.00 67 1019.0
20260506115002 15 178 24.1 25.7 0.00 0.00 0.00 68 1019.0
20260506114001 15 186 14.5 20.9 0.00 0.00 0.00 70 1019.0
20260506113002 15 172 16.1 19.3 0.00 0.00 0.00 70 1019.0
20260506112001 15 178 12.9 20.9 0.00 0.00 0.00 69 1019.0
20260506111002 14 176 14.5 22.5 0.00 0.00 0.00 68 1019.0
20260506110001 14 170 24.1 25.7 0.00 0.00 0.00 67 1019.0
20260506105002 14 173 19.3 24.1 0.00 0.00 0.00 71 1019.0
20260506104001 14 178 20.9 22.5 0.00 0.00 0.00 72 1019.0
20260506103002 15 170 22.5 24.1 0.00 0.00 0.00 66 1019.0
20260506102001 14 172 20.9 24.1 0.00 0.00 0.00 67 1019.0
20260506101002 14 176 14.5 20.9 0.00 0.00 0.00 69 1019.0
20260506100002 14 167 19.3 22.5 0.00 0.00 0.00 70 1019.0
20260506095002 15 173 19.3 24.1 0.00 0.00 0.00 67 1019.0
20260506094001 14 168 25.7 27.4 0.00 0.00 0.00 67 1019.0
20260506093001 15 167 16.1 20.9 0.00 0.00 0.00 69 1019.0
20260506092002 15 169 12.9 22.5 0.00 0.00 0.00 72 1019.0
20260506091001 14 169 24.1 24.1 0.00 0.00 0.00 72 1019.0
20260506090002 14 188 14.5 17.7 0.00 0.00 0.00 72 1019.0
20260506085002 14 177 14.5 24.1 0.00 0.00 0.00 71 1019.0
20260506084001 13 169 17.7 22.5 0.00 0.00 0.00 74 1019.0
20260506083002 13 171 20.9 20.9 0.00 0.00 0.00 76 1019.0
20260506082001 13 174 12.9 20.9 0.00 0.00 0.00 75 1019.0
20260506081002 13 173 11.3 20.9 0.00 0.00 0.00 79 1019.0
20260506073002 13 176 12.9 16.1 0.00 0.00 0.00 83 1019.0
20260506072001 13 157 20.9 24.1 0.00 0.00 0.00 79 1018.0
20260506071002 13 164 20.9 22.5 0.00 0.00 0.00 74 1018.0
20260506062002 13 158 9.7 16.1 0.00 0.00 0.00 72 1018.0
20260506061001 13 166 12.9 16.1 0.00 0.00 0.00 76 1018.0
20260506051001 12 157 3.2 4.8 0.00 0.00 0.00 70 1018.0
20260506045001 11 126 0.0 0.0 0.00 0.00 0.00 67 1018.0
20260506044002 11 135 0.0 0.0 0.00 0.00 0.00 66 1018.0
20260506043002 10 122 0.0 0.0 0.00 0.00 0.00 67 1018.0
20260506042001 10 125 3.2 3.2 0.00 0.00 0.00 70 1018.0
20260506041002 10 124 3.2 3.2 0.00 0.00 0.00 62 1017.0
20260506040001 8 98 3.2 3.2 0.00 0.00 0.00 66 1017.0
20260506035002 6 46 3.2 6.4 0.00 0.00 0.00 77 1017.0
20260506034001 6 121 3.2 3.2 0.00 0.00 0.00 83 1017.0
20260506033001 4 123 8.0 8.0 0.00 0.00 0.00 86 1017.0
20260506032002 4 139 6.4 8.0 0.00 0.00 0.00 85 1017.0
20260506031001 5 10 4.8 6.4 0.00 0.00 0.00 82 1017.0
20260506030002 5 7 3.2 3.2 0.00 0.00 0.00 83 1017.0
20260506025001 5 3 1.6 4.8 0.00 0.00 0.00 82 1017.0
20260506024002 5 1 1.6 3.2 0.00 0.00 0.00 82 1017.0
20260506023001 5 15 6.4 6.4 0.00 0.00 0.00 81 1017.0
20260506022002 5 0 1.6 3.2 0.00 0.00 0.00 80 1017.0
20260506021002 6 5 3.2 4.8 0.00 0.00 0.00 79 1017.0
20260506020001 6 351 4.8 4.8 0.00 0.00 0.00 77 1017.0
20260506015002 6 351 4.8 4.8 0.00 0.00 0.00 77 1017.0
20260506014001 6 349 3.2 3.2 0.00 0.00 0.00 78 1016.0
20260506013002 6 353 3.2 4.8 0.00 0.00 0.00 77 1017.0
20260506012001 6 351 4.8 6.4 0.00 0.00 0.00 78 1017.0
20260506011002 6 354 4.8 6.4 0.00 0.00 0.00 78 1017.0
20260506010002 6 359 3.2 3.2 0.00 0.00 0.00 79 1017.0
20260506005001 6 0 3.2 4.8 0.00 0.00 0.00 79 1017.0
20260506004002 6 349 4.8 6.4 0.00 0.00 0.00 80 1017.0
20260506003002 6 349 6.4 6.4 0.00 0.00 0.00 80 1017.0
20260506002001 6 349 4.8 4.8 0.00 0.00 0.00 80 1017.0
20260506001002 6 343 4.8 6.4 0.00 0.00 0.00 80 1017.0
20260506000001 6 344 3.2 4.8 0.00 0.00 0.00 80 1017.0
20260505235002 6 357 3.2 3.2 0.00 0.00 0.00 80 1017.0
20260505234001 6 329 3.2 3.2 0.00 0.00 0.00 80 1017.0
20260505233001 7 343 3.2 3.2 0.00 0.00 0.00 79 1017.0
20260505232002 7 338 3.2 6.4 0.00 0.00 0.00 78 1017.0
20260505231001 7 3 4.8 4.8 0.00 0.00 0.00 80 1017.0
20260505230002 7 32 0.0 1.6 0.00 0.00 0.00 82 1017.0
20260505225001 7 22 1.6 3.2 0.00 0.00 0.00 82 1017.0
20260505224002 7 359 0.0 1.6 0.00 0.00 0.00 82 1017.0
20260505223002 7 348 1.6 3.2 0.00 0.00 0.00 82 1017.0
20260505222001 7 355 4.8 4.8 0.00 0.00 0.00 83 1017.0
20260505221002 7 9 3.2 4.8 0.00 0.00 0.00 84 1017.0
20260505220002 7 4 3.2 3.2 0.00 0.00 0.00 85 1018.0
20260505215001 7 352 3.2 3.2 0.00 0.00 0.00 85 1018.0
20260505214002 7 356 3.2 3.2 0.00 0.00 0.00 85 1018.0
20260505213001 7 356 1.6 3.2 0.00 0.00 0.00 85 1018.0
20260505212002 7 8 3.2 3.2 0.00 0.00 0.00 85 1018.0
20260505211001 7 6 3.2 3.2 0.00 0.00 0.00 85 1018.0
20260505210001 7 12 1.6 3.2 0.00 0.00 0.00 85 1018.0
20260505205002 8 358 0.0 0.0 0.00 0.00 0.00 84 1018.0
20260505204001 8 6 1.6 1.6 0.00 0.00 0.00 84 1018.0
20260505203002 8 353 3.2 3.2 0.00 0.00 0.00 84 1018.0
20260505202001 8 6 1.6 3.2 0.00 0.00 0.00 84 1018.0
20260505201002 8 9 0.0 1.6 0.00 0.00 0.00 84 1018.0
20260505200002 8 353 1.6 3.2 0.00 0.00 0.00 85 1018.0
20260505195002 8 89 3.2 3.2 0.00 0.00 0.00 85 1018.0
20260505194002 9 45 3.2 4.8 0.00 0.00 0.00 85 1018.0
20260505193001 9 3 1.6 3.2 0.00 0.00 0.00 85 1018.0
20260505192002 10 33 1.6 1.6 0.00 0.00 0.00 86 1018.0
20260505191001 10 138 0.0 1.6 0.00 0.00 0.00 86 1018.0
20260505190003 10 148 3.2 3.2 0.00 0.00 0.00 86 1018.0
20260505185001 10 143 0.0 1.6 0.00 0.00 0.00 85 1018.0
20260505184002 10 132 3.2 3.2 0.00 0.00 0.00 85 1018.0
20260505183002 10 156 0.0 0.0 0.00 0.00 0.00 86 1018.0
20260505182001 10 145 1.6 3.2 0.00 0.00 0.00 86 1018.0